Terug naar catalogus

STARLINK-34024

ActiefCommunicatieVLEO
NORAD 64031·PAYLOAD·🇺🇸 United States

Gelanceerd May 16, 2025 vanaf Vandenberg Space Force Base

Loading…

Volgende Passages (komende 24 uur)

TLE

VersSource: CelesTrak SupGP

Epoch: Sep 14, 2026, 21:10 UTC

1 64031C 25102K   26257.88243056 -.00034138  00000+0 -11577-2 0  2572
2 64031  70.0011 355.9400 0003342 273.4673 272.8296 15.30422661    12

Volg STARLINK-34024 in realtime met AllMySat

Download on the App Store